Meteo Giornale » Osservazioni meteo Italia » Roma Fiumicino

ore: 23:20 - Osservazioni Meteo Roma Fiumicino
Lat. 41° 48' N Lon. 12° 14' E Alt. 2 metri s.l.m.

nuvoloso Europe/Rome

6 °C

Nuvoloso

Temp. 24 Ore

4 °C

11 °C

Est/Nord-Est

14.8 Km/h

Dew point 2 °C

Umidità 75 %

Visibilità  10 Km

Il sole sorge alle ore 06:56

Il sole tramonta alle ore 17:53

Data e Ora Cielo e Fenomeni T °C DP °C Um. % Pres. hPa Vis. km Vento km/h
Oggi h: 23:20 nuvoloso Nuvoloso 6 2 75 1001 10 E/NE 14.8
Oggi h: 22:50 coperto_pioggia Pioviggine Leggera 7 2 70 1001 10 N/NE 16.7
Oggi h: 22:20 coperto_pioggia Pioviggine Leggera 7 1 65 1001 10 N 16.7
Oggi h: 21:50 coperto_pioggia Pioggia 7 1 65 1002 10 N 7.4
Oggi h: 21:20 coperto_pioggia Pioviggine Leggera 8 1 61 1001 10 N/NE 14.8
Oggi h: 20:50 coperto_pioggia Pioviggine Leggera 7 1 65 1001 10 N/NE 11.1
Oggi h: 20:20 poco_nuvoloso Poco Nuvoloso 8 1 61 1001 10 N/NE 11.1
Oggi h: 19:50 coperto_pioggia Pioviggine 8 1 61 1001 10 N/NE 14.8
Oggi h: 19:20 poco_nuvoloso Poco Nuvoloso 8 1 61 1001 10 N 14.8
Oggi h: 18:50 poco_nuvoloso Poco Nuvoloso 9 1 57 1001 10 N 16.7
Oggi h: 18:20 poco_nuvoloso Poco Nuvoloso 9 1 57 1001 10 N 20.3
Oggi h: 17:50 poco_nuvoloso Poco Nuvoloso 9 2 61 1000 10 N 18.5
Oggi h: 17:20 poco_nuvoloso Poco Nuvoloso 10 1 53 1000 10 N 14.8
Oggi h: 16:50 poco_nuvoloso Poco Nuvoloso 10 1 53 1000 10 N 18.5
Oggi h: 16:20 poco_nuvoloso Poco Nuvoloso 11 2 53 1000 10 N 16.7
Oggi h: 15:50 poco_nuvoloso Poco Nuvoloso 11 2 53 1000 10 N/NO 16.7
Oggi h: 15:20 poco_nuvoloso Poco Nuvoloso 11 2 53 1000 10 N/NO 14.8
Oggi h: 14:50 nuvoloso Nuvoloso 11 3 57 1000 10 N/NO 14.8
Oggi h: 14:20 nuvoloso Nuvoloso 11 2 53 1000 10 NO 13
Oggi h: 13:50 nuvoloso Nuvoloso 11 2 53 1001 10 N/NO 13
Oggi h: 13:20 nuvoloso Nuvoloso 11 2 53 1001 10 N/NO 11.1
Oggi h: 12:50 nuvoloso Nuvoloso 11 2 53 1001 10 N/NO 11.1
Oggi h: 12:20 nuvoloso Nuvoloso 11 2 53 1001 10 N/NO 11.1
Oggi h: 11:50 coperto_pioggia Pioviggine Leggera 10 1 53 1002 10 N/NO 9.3
Oggi h: 11:20 coperto_pioggia Pioviggine Leggera 9 3 66 1002 10 N 11.1
Oggi h: 10:50 coperto_pioggia Pioviggine Leggera 9 3 66 1002 10 N 5.5
Oggi h: 10:20 coperto_pioggia Pioviggine Leggera 8 4 75 1002 10 N 1.8
Oggi h: 09:50 coperto_pioggia Pioviggine Leggera 7 2 70 1002 10 NE 7.4
Oggi h: 09:20 coperto_pioggia Pioviggine Leggera 7 2 70 1001 10 NE 7.4
Oggi h: 08:50 poco_nuvoloso Poco Nuvoloso 7 2 70 1001 10 N/NE 7.4
Oggi h: 08:20 sereno Sereno 6 2 75 1001 10 N/NE 7.4
Oggi h: 07:50 sereno Sereno 5 1 75 1001 10 N 5.5
Oggi h: 07:20 sereno Sereno 4 0 75 1001 10 N 3.7
Oggi h: 06:50 sereno Sereno 4 0 75 1001 10 E/NE 9.3
Oggi h: 06:20 sereno Sereno 4 0 75 1001 10 NE 9.3
Oggi h: 05:50 sereno Sereno 4 0 75 1001 10 E/NE 7.4
Oggi h: 05:20 sereno Sereno 4 0 75 1001 10 NE 7.4
Oggi h: 04:50 sereno Sereno 5 0 70 1001 10 NE 9.3
Oggi h: 04:20 sereno Sereno 5 1 75 1001 10 N/NE 9.3
Oggi h: 03:50 sereno Sereno 5 1 75 1001 10 N/NE 7.4
Oggi h: 03:20 sereno Sereno 4 1 80 1001 10 N 5.5
Oggi h: 02:50 sereno Sereno 4 1 80 1002 10 N 5.5
Oggi h: 02:20 sereno Sereno 4 1 80 1002 10 N 3.7
Oggi h: 01:50 sereno Sereno 4 1 80 1002 10 N/NE 11.1
Oggi h: 01:20 sereno Sereno 4 1 80 1002 10 N/NE 7.4
Oggi h: 00:50 sereno Sereno 5 1 75 1002 10 N 7.4
Oggi h: 00:20 sereno Sereno 4 1 80 1002 10 N 11.1
Ieri h: 23:50 sereno Sereno 4 1 80 1003 10 N 11.1
Ieri h: 23:20 sereno Sereno 5 1 75 1003 10 N 9.3
Ieri h: 22:50 sereno Sereno 5 1 75 1003 10 N/NE 9.3